Location: Unspecified
(0.0000°N, 0.0000°E)
Time: 05:27:10
(UTC+00:00)

CUTE 1.7 + AOD 2 - Pass Details

Date: 23 May 2026
Orbit: 531 x 545 km, 97.8° (Epoch: 11 June)

Event Time Altitude Azimuth Distance (km) Brightness Sun altitude
Rises 03:38:57 0° 29° (NNE) 2,661 ? -32.0°
Reaches altitude 10° 03:41:14 10° 40° (NE) 1,776 ? -31.5°
Enters shadow 03:43:29 25° 71° (ENE) 1,096 ? -30.9°
